Погода в Красном

Россия / Липецкая область     53°13′24″N   38°43′47″E
темп.,
°C
ветер,
м/с
пор.,
м/с
влажн.,
%
обл.,
%
осадки,
мм/ч
давл.,
гПа
погр.,
м
3 марта, ср
ср300:00−2сз6129576 0.1 1011435
03:00−2сз6129587 0.3 1013589
06:00−3сз7139295 0.1 1014636
09:00−3ссз6118897 0.3 1017833
12:00−3сз6108536 0.0 1018753
15:00−2зсз5108525 0.0 1018820
18:00−1зсз5119095 0.1 1016639
21:00−1з6128998 0.1 1016572
4 марта, чт
чт400:00−2з71293100 0.1 1014718
03:00−2зюз71391100 0.1 1012436
06:000зюз81591100 0.0 1009566
09:00−1зюз8168798 0.0 1008551
12:000зюз8148594 0.0 1006741
15:00+1зюз6129397 0.0 1004856
18:00+1зюз51294100 0.0 1002671
21:000з3899100 0.1 1001380
5 марта, пт
пт500:000з3898100 0.9 1000376
03:00−1з5998100 1.5 1001463
06:00−4с489599 0.4 1004327
09:00−5с479498 0.4 1007292
12:00−4ссз238683 0.0 1008320
15:00−3сз238361 0.0 1010378
18:00−6зюз2289100 0.0 101121
21:00−6з2393100 0.0 101334
6 марта, сб
сб600:00−8с3489100 0.0 101479
03:00−10с348495 0.0 101542
06:00−11сз33870 0.0 101627
09:00−10сз23880 0.0 1016100
12:00−7сз23830 0.0 1016268
15:00−6сз22810 0.0 1016411
18:00−8ссз239346 0.0 101729
21:00−9с369471 0.1 1019221
7 марта, вс
вс700:00−13зсз339468 0.0 101939
03:00−14зюз478934 0.0 1018107
06:00−11юз613889 0.0 1015310
09:00−7юз9187955 0.0 1012683
12:00−4зюз111884100 0.0 10081113
15:00−3зюз121988100 0.2 10041224
18:00−2зюз122186100 0.3 10001251
21:00−3зсз101591100 0.8 1001809